Regional Weather Roundup
Issued by NWS

Home | Current Version | Previous Version | Graphics & Text | Print | Product List | Glossary On
Versions: 1 2 3 4 5 6 7 8 9 10 11 12 13 14 15 16 17 18 19 20 21 22 23 24 25 26 27 28 29 30 31 32 33 34 35 36 37 38 39 40 41 42 43 44 45 46 47 48 49 50
000
ASUS43 KMKX 282000
RWRWI

WISCONSIN REGIONAL WEATHER ROUNDUP
NATIONAL WEATHER SERVICE MILWAUKEE/SULLIVAN WI
200 PM CST SUN DEC 28 2014

NOTE: "FAIR" INDICATES FEW OR NO CLOUDS BELOW 12,000 FEET WITH NO
SIGNIFICANT WEATHER AND/OR OBSTRUCTIONS TO VISIBILITY.

WIZ001-002-006>008-014>016-023>028-282100-
NORTHWEST WISCONSIN

CITY           SKY/WX    TMP DP  RH WIND       PRES   REMARKS
SUPERIOR ARPT  SUNNY     15  -2  48 N7        30.22S WCI   5
ASHLAND        SUNNY     16   3  56 NW7       30.18R WCI   6
HAYWARD        SUNNY     19   3  49 VRB5      30.14R WCI  12
SIREN          MOSUNNY   20   4  48 N12       30.17R HAZE    WCI   8
CUMBERLAND     PTSUNNY   19  10  68 NW9       30.13R WCI   9
RICE LAKE      PTSUNNY   22  13  67 N6        30.15S WCI  14
CHETEK         CLOUDY    21  13  72 NW3       30.14S
LADYSMITH      FLURRIES  20  15  83 SW3       30.13S
EAU CLAIRE     NOT AVBL
MENOMONIE      CLOUDY    19  13  77 CALM      30.16S
NEW RICHMOND   CLOUDY    22  14  71 N7        30.16R WCI  13
OSCEOLA        PTSUNNY   22  14  71 N6        30.19S WCI  14
$$

WIZ003>005-009-010-017-018-282100-
NORTH CENTRAL WISCONSIN

CITY           SKY/WX    TMP DP  RH WIND       PRES   REMARKS
MANITOWISH WTR LGT SNOW  14   9  80 NW9       30.07R WCI   2
ARBOR VITAE    FLURRIES  18  10  72 NW6       30.06S WCI  10
WOODRUFF       FLURRIES  18  10  72 NW6       30.06S WCI  10
RHINELANDER    CLOUDY    17  10  74 W9        30.07R WCI   6
EAGLE RIVER    LGT SNOW  17   9  71 NW7       30.05R WCI   7
LAND O LAKES   PTSUNNY   18  10  70 W12G17    30.06R WCI   5
PHILLIPS       CLOUDY    18  10  73 W6        30.08S WCI   9
TOMAHAWK       FLURRIES  19  13  77 NW7       30.08S WCI  10
MEDFORD        LGT SNOW  15  12  87 W5        30.09R WCI   8
MERRILL        LGT SNOW  19  16  86 CALM      30.09S
$$

WIZ029-030-035-036-043>047-282100-
CENTRAL WISCONSIN

CITY           SKY/WX    TMP DP  RH WIND       PRES   REMARKS
WAUSAU         CLOUDY    18  13  80 NW5       30.10R HAZE    WCI  11
MOSINEE        LGT SNOW  19  18  93 NW7       30.11R WCI  10
MARSHFIELD     CLOUDY    18  13  80 NW6       30.11R WCI  10
STEVENS POINT  FLURRIES  19  15  84 W6        30.12R WCI  11
WAUPACA        SUNNY     31  18  60 W6        30.12S WCI  25
WAUTOMA        NOT AVBL
WISC RAPIDS    CLOUDY    25  16  68 NW5       30.13R WCI  19
CAMP DOUGLAS   NOT AVBL
$$

WIZ011>013-019>022-031-037>040-048>050-282100-
NORTHEAST WISCONSIN

CITY           SKY/WX    TMP DP  RH WIND       PRES   REMARKS
ANTIGO         FLURRIES  17  13  82 W7        30.07R WCI   8
SHAWANO        PTSUNNY   27  18  67 W6        30.11S WCI  20
OCONTO         SUNNY     26  15  63 W8        30.11R WCI  18
STURGEON BAY   SUNNY     25  14  63 W10       30.11R WCI  15
GREEN BAY      PTSUNNY   27  18  69 W6        30.12R WCI  20
MANITOWOC      NOT AVBL
APPLETON       MOSUNNY   27  18  69 W5        30.11S WCI  21
CLINTONVILLE   CLOUDY    27  18  69 NW6       30.11S WCI  20
OSHKOSH        SUNNY     28  18  66 CALM      30.12S
$$

WIZ032>034-041-042-053>061-282100-
SOUTHWEST WISCONSIN

CITY           SKY/WX    TMP DP  RH WIND       PRES   REMARKS
LA CROSSE      SUNNY     28  17  63 CALM      30.16R
SPARTA         SUNNY     28  18  68 W3        30.14S
VIROQUA        MOSUNNY   28  20  74 SW5       30.10F WCI  22
BOSCOBEL       MOSUNNY   32  19  58 SW6       30.16R WCI  26
PRAIRIE DU CHI SUNNY     31  18  59 S3        30.16S
PLATTEVILLE    SUNNY     30  17  58 W5        30.15S WCI  25
$$

WIZ056-057-062-063-064-067-068-282100-
SOUTH CENTRAL WISCONSIN

CITY           SKY/WX    TMP DP  RH WIND       PRES   REMARKS
REEDSBURG      SUNNY     29  18  62 W7        30.12S WCI  22
BARABOO/DELLS  SUNNY     29  18  61 CALM      30.12S
LONE ROCK      NOT AVBL
MINERAL POINT  SUNNY     32  21  64 W7        30.12S WCI  26
MADISON        MOSUNNY   31  18  58 VRB3      30.13R
MIDDLETON      SUNNY     33  19  56 NW5       30.13S WCI  28
WATERTOWN      SUNNY     31  19  62 NW8       30.13R WCI  23
MONROE         SUNNY     32  21  64 W9        30.12S WCI  24
JANESVILLE     SUNNY     34  18  51 W10       30.13S WCI  26
$$

WIZ051-052-058>065-066-070>072-282100-
SOUTHEAST WISCONSIN

CITY           SKY/WX    TMP DP  RH WIND       PRES   REMARKS
MILWAUKEE      MOSUNNY   34  17  50 NW8       30.13R WCI  27
WAUKESHA       MOSUNNY   28  18  64 NW13      30.13S WCI  18
MILWAUKEE/TIMM SUNNY     32  18  55 W9        30.13S WCI  24
RACINE         SUNNY     33  18  53 W7        30.15R WCI  27
BURLINGTON     SUNNY     32  20  60 NW8       30.13S WCI  25
KENOSHA        SUNNY     34  21  59 W12       30.13S WCI  25
FOND DU LAC    SUNNY     30  19  63 NW7       30.13R WCI  23
SHEBOYGAN      SUNNY     29  18  63 NW10      30.12R WCI  20
WEST BEND      SUNNY     30  19  64 W9        30.11S WCI  22
JUNEAU         SUNNY     28  18  68 W5        30.13S WCI  22
$$

LSZ147-162-282100-
LAKE SUPERIOR

STATION/POSITION TIME  TEMP    WIND        PRES    WAVE
                       AIR SEA DIR/SP/G            HT/PER
                 (UTC) (F)     (DEG/KT/KT) (MB)    (FT/S)
DEVILS ISLAND    1900   12     300/ 13/ 15 1023.7R
PORT WING        1900   14     330/  6/ 12 1023.0R
SAXON HARBOR     1900   19     290/  9/ 14 1021.3S
$$

LMZ867-665-643>646-282100-
LAKE MICHIGAN

STATION/POSITION TIME  TEMP    WIND        PRES    WAVE
                       AIR SEA DIR/SP/G            HT/PER
                 (UTC) (F)     (DEG/KT/KT) (MB)    (FT/S)
CHAMBERS ISLAND  1900   28     290/  5/  9 1019.0F
NORTHPORT PIER   1905   25     300/ 10/ 16 1019.3R
SISTER BAY       1843          300/ 15/ 16   N/A
ALGOMA LAKESHORE 1815          320/ 12/ 18   N/A
KEWAUNEE LAKESHO 1900   26     290/  7/ 13 1018.3F
SHEBOYGAN LAKESH 1900   28 36  320/ 10/ 12 1020.7F
PORT WASHINGTON  1940   31     290/  6/ 12 1021.0F
MILWAUKEE LAKESH 1900   31     290/  8/ 12   N/A
KENOSHA   LAKESH 1900   32     300/ 10/ 14 1020.3F
$$

TC  - TEMPERATURE IN CELSIUS
VSB - VISIBILITY IN STATUTE MILES
WCI - WIND CHILL INDEX
HX  - HEAT INDEX




USA.gov is the U.S. government's official web portal to all federal, state and local government web resources and services.